Voltar ao catálogo

STARLINK-34825

AtivoComunicaçõesVLEO
NORAD 65692·PAYLOAD·🇺🇸 United States

Lançado Sep 21, 2025 de Cape Canaveral Space Force Station

Loading…

Próximas Passagens (próximas 24 horas)

TLE

AtualizadoSource: CelesTrak SupGP

Época: Sep 15, 2026, 03:35 UTC

1 65692C 25212S   26258.14979167 -.00019822  00000+0 -58573-3 0  2589
2 65692  53.1572 182.7844 0001359  86.7458 185.7793 15.34395480    16

Acompanhe STARLINK-34825 em tempo real com AllMySat

Download on the App Store